Wetbulb
53.63 53.91 54.41 54.59 54.49 54.39 54.49 53.63 53.51 53.43 53.71 53.92 54.06 54.56 54.66 53.84 53.71 47.31 42.61 46.14 50.11 58.07 58.08 50.88 50.26 48.59 45.36 42.55 45.00 45.69 37.23 35.04 38.30 40.92 43.37 47.11 45.09 47.21 51.00 49.61 50.44 51.47 50.97 53.65 56.50
53.75 53.71 54.10 54.49 54.59 54.44 54.57 53.66 53.35 53.27 53.49 53.41 53.55 53.97 53.70 53.31 48.43 44.41 51.05 55.29 58.68 59.89 51.23 47.30 45.36 44.20 41.05 41.42 42.31 41.02 35.00 38.83 42.85 44.41 43.95 44.84 44.53 44.58 45.89 46.77 47.93 49.22 52.66 55.34 57.72
53.70 53.62 53.81 53.88 54.08 54.03 53.65 53.49 53.32 53.32 53.57 53.55 53.31 53.26 53.44 52.37 43.41 48.22 58.75 57.42 58.55 58.47 51.80 48.63 45.83 43.37 37.62 40.09 40.88 38.68 36.51 40.42 42.94 45.59 45.98 44.29 43.93 47.42 45.05 44.07 46.17 47.50 50.11 52.99 54.53
53.76 53.79 53.47 53.50 53.70 53.50 53.35 53.34 53.32 53.21 53.16 53.04 52.38 52.71 53.65 49.41 38.38 47.64 64.03 61.03 59.89 57.41 48.38 45.19 45.58 40.10 36.38 37.52 40.66 37.60 41.59 42.92 43.09 44.82 45.11 44.46 46.16 45.54 46.22 46.24 49.10 49.61 50.26 50.83 52.30
53.65 53.78 53.55 53.05 53.16 53.19 53.02 53.19 53.05 52.84 52.63 52.46 52.31 52.68 47.45 38.75 41.56 53.00 62.50 60.37 56.76 49.41 45.33 47.79 43.84 39.58 34.76 36.68 38.15 37.01 39.91 41.70 43.27 41.97 41.51 43.82 42.96 43.96 45.08 47.92 49.24 49.63 50.37 49.61 51.83
53.48 53.26 53.38 53.46 53.23 53.06 52.92 52.97 52.95 52.72 52.49 52.45 52.08 52.96 44.34 32.27 43.67 56.62 57.14 54.63 52.14 48.81 47.12 48.65 46.08 45.12 39.86 38.18 37.20 39.70 39.58 40.54 41.45 41.94 41.87 41.54 42.84 41.87 44.16 47.70 47.95 48.10 47.94 48.67 51.54
54.46 53.45 53.00 53.31 53.52 53.68 53.30 53.16 53.02 53.70 53.47 52.88 52.24 51.73 43.66 37.32 49.58 55.08 55.02 50.00 50.35 50.77 48.69 49.97 49.08 43.25 40.41 37.91 39.94 40.09 36.69 39.22 39.66 40.65 41.36 42.23 40.19 40.84 44.71 45.87 45.89 46.93 47.70 49.43 53.05
54.80 54.08 53.02 53.06 53.47 53.78 54.21 54.31 54.35 53.94 53.55 53.13 53.13 48.05 39.42 46.58 50.04 53.09 51.19 49.20 49.55 50.26 49.14 49.45 47.26 41.68 38.64 39.98 39.66 35.64 34.55 30.74 36.90 39.42 42.06 39.76 36.92 42.52 44.48 43.83 44.28 46.13 46.67 47.20 47.54
54.57 54.25 53.37 53.04 53.37 53.66 53.63 53.57 53.88 54.41 55.13 53.90 46.05 43.10 42.84 54.85 51.73 53.73 51.85 49.25 49.79 49.57 49.25 52.52 45.62 39.59 39.10 34.37 31.35 31.54 27.01 28.61 34.45 38.12 38.59 37.32 35.66 41.77 44.49 42.88 42.57 43.56 44.86 46.00 47.47
54.55 54.14 53.86 53.18 53.10 53.08 52.73 53.88 54.83 54.94 54.00 53.02 51.15 41.51 46.20 47.50 51.91 52.88 50.63 51.04 48.90 48.23 45.31 43.03 38.86 35.54 32.85 32.33 25.89 28.54 28.69 31.21 32.07 37.68 37.47 36.76 36.87 40.27 42.44 42.34 42.48 41.82 42.67 44.23 45.66
54.55 53.96 53.61 53.51 53.06 52.77 49.86 46.92 44.43 42.53 46.66 44.30 44.66 44.31 47.04 51.45 54.09 47.78 50.81 49.04 47.38 43.37 37.42 38.71 35.06 31.70 34.62 35.57 36.20 34.35 32.20 31.91 35.67 40.16 36.03 36.27 37.67 39.02 41.05 40.70 40.63 41.97 41.52 41.97 43.53
53.98 53.92 53.69 53.41 53.20 52.26 48.75 44.45 47.10 46.98 41.54 47.99 48.73 47.37 49.94 51.15 47.07 50.38 49.46 43.15 41.63 36.94 38.40 35.79 32.46 37.84 38.95 38.02 36.83 35.25 32.83 32.50 36.05 39.57 36.84 36.05 36.29 38.90 39.25 40.23 41.01 41.35 42.20 41.64 42.08
53.33 53.33 53.32 53.06 52.21 48.42 46.16 48.67 50.60 48.27 40.71 44.52 48.12 47.65 47.83 49.58 45.93 47.24 45.70 42.83 40.24 37.55 37.11 34.06 37.11 40.97 39.48 37.31 36.18 34.53 32.45 33.12 33.84 37.91 37.58 35.69 34.80 36.31 39.37 40.93 42.94 43.27 42.96 42.72 42.99
52.82 52.87 52.85 51.83 46.88 46.10 45.84 51.06 49.77 48.36 36.13 41.22 44.26 48.07 49.66 49.27 44.89 51.97 48.16 45.13 40.43 37.99 37.54 36.22 39.73 39.67 36.74 36.33 36.84 32.07 38.15 38.27 37.33 33.19 28.22 35.87 28.25 35.37 36.85 38.15 40.48 41.85 41.16 41.55 42.40
52.55 52.93 52.50 50.89 43.22 43.69 48.97 48.49 48.11 48.43 27.79 45.47 44.62 50.37 48.71 44.78 44.21 45.46 48.97 45.02 40.21 39.58 37.82 36.39 37.06 36.10 35.47 37.00 40.50 36.84 41.31 38.57 36.27 32.05 28.06 30.56 26.31 32.78 35.05 35.02 37.38 40.69 42.49 42.10 43.46
52.26 52.73 51.98 47.51 44.25 45.62 48.90 48.68 48.19 37.83 30.42 43.30 44.10 42.37 41.80 42.32 42.90 44.72 45.04 46.09 44.68 39.60 38.05 37.43 41.63 39.70 38.60 41.79 42.37 42.83 38.33 36.19 31.49 28.75 24.41 31.96 29.73 32.43 35.94 35.39 37.15 39.85 42.09 44.87 44.67
51.89 51.61 49.70 48.29 41.08 45.31 46.81 46.66 35.24 31.06 43.85 40.60 41.15 42.88 38.68 37.95 40.12 41.45 40.13 37.30 35.34 30.71 30.65 35.89 37.25 41.25 43.35 38.47 40.66 38.97 33.25 26.86 23.58 22.22 25.51 32.01 28.05 33.51 37.40 39.66 39.16 40.04 42.57 42.93 42.93
50.92 49.71 47.50 47.75 44.93 45.45 46.22 40.71 31.05 37.48 39.14 43.27 42.50 41.56 37.72 39.27 38.47 40.50 37.89 35.23 38.97 35.85 31.92 29.88 28.21 38.36 42.92 39.37 35.79 35.18 33.82 25.98 20.35 21.74 25.54 32.17 28.21 31.85 39.71 42.59 43.22 43.64 42.58 43.26 43.15
49.27 42.22 42.68 47.41 48.01 45.77 42.30 33.36 32.56 39.52 42.47 40.56 40.49 37.59 36.11 38.66 38.16 38.56 36.07 36.42 38.81 37.98 31.30 30.93 32.20 40.93 42.26 42.34 40.12 34.61 30.76 34.21 25.27 29.61 27.52 27.47 31.26 37.14 39.99 41.56 43.01 42.55 43.33 42.55 42.89
43.16 39.63 44.00 49.29 47.87 44.82 36.68 33.81 39.25 44.92 43.17 41.58 35.84 38.78 34.17 35.74 35.27 34.38 34.50 39.92 39.29 40.45 37.64 34.13 28.79 37.02 40.18 41.52 40.77 36.61 38.70 26.27 31.04 23.60 23.43 26.01 27.10 28.71 35.00 38.21 40.59 41.41 41.30 42.32 43.42
39.07 38.88 45.77 46.38 47.08 40.59 32.02 35.49 40.98 45.33 44.21 40.81 38.38 37.16 37.66 36.61 35.74 34.33 35.38 38.35 42.06 39.67 39.05 35.19 31.21 31.22 34.54 33.67 31.87 31.25 31.17 33.17 34.65 31.76 25.56 24.19 25.62 37.22 37.32 39.48 40.45 40.49 41.68 41.62 42.41
37.79 36.06 45.24 47.14 38.67 34.14 32.77 39.07 43.47 43.20 44.76 42.68 41.64 40.30 38.56 38.05 35.67 35.99 35.92 38.16 42.15 41.81 36.13 35.97 31.74 27.93 30.66 35.33 37.63 33.72 31.44 31.84 24.07 23.01 29.38 29.42 27.74 40.33 39.03 39.56 40.97 41.76 42.93 43.33 43.33
35.44 35.18 44.69 44.24 31.67 32.17 36.81 39.79 42.37 42.40 41.89 40.01 39.33 39.93 39.51 36.56 32.74 36.50 38.26 41.84 42.54 40.72 37.47 37.37 29.06 24.69 26.48 29.29 33.10 31.40 34.18 33.90 31.85 31.59 27.52 25.02 24.89 39.51 40.18 40.67 42.18 40.73 42.08 42.49 44.08
37.41 33.73 36.45 37.43 36.31 34.07 34.18 36.18 37.61 43.83 41.59 42.93 39.33 40.63 37.46 34.91 37.17 34.33 36.07 40.52 42.37 41.74 45.59 40.01 28.74 27.91 23.27 26.73 28.49 28.07 31.60 33.68 30.91 25.55 26.88 27.98 30.37 35.93 37.83 38.76 40.38 40.92 41.36 41.25 42.37
36.64 32.85 34.01 30.40 33.16 34.31 32.97 37.06 36.71 37.58 41.51 41.73 37.87 38.71 37.13 31.10 33.28 33.86 36.79 37.06 40.27 42.55 37.60 34.07 28.41 28.90 29.94 31.50 31.95 31.67 32.17 32.51 29.99 31.39 28.58 31.03 31.04 34.96 37.75 38.09 38.68 40.28 41.22 41.46 41.56
36.14 34.96 35.62 34.01 34.88 34.04 35.94 34.83 36.91 39.15 39.16 37.94 36.53 37.53 37.67 31.95 34.01 31.19 34.74 33.70 33.25 35.39 33.27 33.10 28.83 30.34 29.60 33.66 33.15 30.95 32.65 33.33 34.81 35.30 33.92 33.70 33.21 37.93 39.07 39.09 39.07 39.37 40.17 40.11 40.98
36.72 36.84 37.16 35.40 36.90 35.38 37.15 38.35 38.24 39.05 40.42 40.74 40.21 38.46 36.24 37.73 39.94 39.10 37.90 36.21 35.39 34.07 30.98 29.98 28.35 26.49 24.86 30.55 29.77 25.69 31.31 34.09 34.45 35.97 35.11 31.45 33.84 37.03 36.44 37.49 37.72 38.44 39.64 39.71 40.52
MSLP
1017.64 1017.25 1016.85 1016.52 1016.24 1016.00 1015.79 1015.55 1015.38 1015.18 1014.99 1014.82 1014.55 1014.32 1014.15 1013.99 1013.70 1013.58 1012.82 1010.06 1009.97 1009.71 1009.84 1009.95 1010.05 1010.13 1010.36 1010.61 1010.83 1011.06 1012.45 1012.48 1011.95 1011.33 1009.90 1009.29 1009.06 1008.49 1008.12 1007.79 1007.60 1006.99 1006.81 1005.97 1005.43
1017.37 1017.06 1016.65 1016.27 1015.94 1015.72 1015.47 1015.26 1015.07 1014.90 1014.78 1014.65 1014.40 1014.06 1013.85 1013.75 1013.41 1012.69 1009.37 1009.11 1009.26 1009.34 1009.84 1009.92 1010.07 1010.17 1010.80 1010.84 1011.03 1011.57 1012.23 1011.77 1011.31 1010.72 1010.16 1009.63 1009.14 1008.91 1008.85 1008.08 1007.39 1007.49 1006.51 1005.98 1005.92
1017.34 1016.84 1016.45 1016.07 1015.71 1015.45 1015.21 1014.96 1014.82 1014.68 1014.52 1014.42 1014.29 1014.10 1013.83 1013.59 1013.10 1009.51 1008.10 1008.64 1009.09 1009.43 1009.58 1009.66 1009.85 1010.04 1010.70 1010.93 1011.15 1011.39 1011.69 1011.27 1010.85 1010.60 1010.17 1009.55 1009.18 1008.70 1008.62 1008.06 1007.34 1007.30 1006.66 1006.35 1006.32
1017.30 1016.75 1016.23 1015.91 1015.54 1015.21 1014.95 1014.73 1014.55 1014.41 1014.28 1014.21 1014.18 1014.08 1013.84 1013.68 1011.74 1008.51 1007.71 1008.50 1009.15 1009.61 1009.84 1009.92 1010.17 1010.41 1010.90 1011.11 1010.82 1011.13 1010.88 1010.53 1010.33 1010.15 1010.01 1009.60 1009.02 1008.31 1007.92 1007.62 1007.19 1006.79 1006.52 1006.25 1006.57
1017.20 1016.69 1016.18 1015.69 1015.39 1015.07 1014.76 1014.53 1014.34 1014.23 1014.18 1014.10 1014.04 1013.91 1013.70 1012.92 1010.20 1008.49 1008.31 1008.79 1009.33 1009.72 1009.81 1010.03 1010.20 1010.48 1010.66 1010.92 1010.86 1011.08 1010.79 1010.39 1009.91 1009.90 1009.90 1009.32 1008.68 1008.15 1007.02 1007.29 1006.66 1006.33 1006.05 1006.11 1006.02
1017.06 1016.57 1016.10 1015.64 1015.17 1014.83 1014.61 1014.36 1014.15 1013.99 1013.96 1013.94 1013.93 1013.80 1013.62 1011.59 1008.53 1008.46 1008.71 1009.06 1009.26 1009.57 1009.75 1009.81 1009.77 1009.88 1010.23 1010.44 1010.54 1010.53 1010.57 1010.41 1010.13 1009.96 1009.61 1009.24 1008.15 1007.61 1007.07 1006.66 1006.56 1006.01 1005.70 1005.27 1005.25
1016.92 1016.40 1015.92 1015.47 1015.05 1014.62 1014.27 1014.10 1013.94 1013.76 1013.62 1013.62 1013.71 1013.63 1013.07 1009.91 1008.55 1008.59 1008.81 1009.02 1009.19 1009.28 1009.50 1009.46 1009.51 1009.81 1010.04 1010.30 1010.33 1010.58 1010.80 1010.52 1010.25 1009.58 1009.14 1008.84 1008.14 1007.23 1006.89 1006.66 1006.47 1006.05 1005.49 1005.17 1004.93
1016.80 1016.31 1015.74 1015.24 1014.80 1014.38 1014.01 1013.70 1013.60 1013.51 1013.42 1013.39 1013.51 1013.45 1011.60 1008.85 1008.65 1008.70 1008.77 1008.86 1008.96 1009.03 1009.20 1009.20 1009.43 1009.85 1010.25 1010.54 1010.92 1011.22 1011.49 1011.35 1010.43 1009.82 1008.81 1008.71 1007.41 1007.07 1007.01 1006.86 1006.59 1006.04 1005.58 1005.32 1005.19
1016.63 1016.12 1015.57 1015.00 1014.52 1014.12 1013.74 1013.37 1013.15 1013.16 1013.12 1013.31 1013.50 1013.12 1010.27 1008.49 1008.41 1007.86 1008.21 1008.42 1008.61 1008.77 1008.87 1009.00 1009.36 1010.30 1010.68 1011.32 1011.98 1012.16 1012.39 1012.05 1011.25 1009.96 1009.65 1009.24 1008.34 1007.61 1006.76 1007.06 1006.54 1006.51 1006.13 1005.80 1005.16
1016.42 1015.81 1015.26 1014.74 1014.33 1013.94 1013.58 1012.89 1012.68 1013.00 1013.30 1013.44 1013.05 1012.80 1009.81 1008.24 1007.52 1007.53 1007.72 1008.28 1008.50 1008.69 1008.85 1009.27 1009.99 1010.75 1011.56 1012.03 1012.46 1012.45 1012.33 1012.01 1011.57 1010.25 1009.75 1009.34 1008.49 1008.18 1007.65 1007.22 1006.64 1006.49 1006.24 1005.96 1005.37
1016.32 1015.50 1014.82 1014.29 1013.96 1013.74 1013.75 1013.40 1013.21 1012.99 1012.72 1011.34 1010.77 1010.19 1008.88 1007.73 1007.14 1007.42 1007.69 1008.28 1008.81 1009.06 1009.59 1009.98 1010.64 1011.17 1011.45 1011.71 1011.83 1012.16 1012.29 1012.07 1011.17 1009.99 1010.02 1009.25 1008.06 1007.99 1007.43 1007.18 1006.83 1006.24 1005.96 1005.71 1005.04
1015.93 1015.27 1014.43 1013.76 1013.31 1013.28 1013.52 1012.75 1011.38 1011.28 1011.09 1009.68 1009.27 1009.04 1008.33 1007.96 1007.90 1007.37 1007.45 1008.37 1009.07 1009.67 1010.15 1010.87 1010.86 1010.53 1010.84 1011.28 1011.69 1011.97 1012.11 1011.77 1011.01 1010.04 1009.98 1009.41 1007.94 1007.57 1007.57 1007.05 1006.41 1006.25 1005.90 1005.38 1004.78
1015.56 1014.85 1014.10 1013.27 1012.84 1013.04 1012.57 1011.35 1010.68 1010.92 1010.96 1008.80 1008.32 1007.95 1007.71 1007.99 1007.99 1007.34 1007.47 1007.98 1008.73 1009.66 1010.20 1010.80 1010.19 1010.01 1010.53 1010.83 1011.30 1011.33 1011.58 1011.30 1011.02 1010.23 1009.76 1009.55 1007.90 1007.66 1007.23 1006.86 1006.24 1005.65 1005.38 1005.26 1005.06
1015.11 1014.45 1013.80 1012.95 1012.73 1012.30 1011.72 1010.76 1010.59 1010.68 1010.43 1008.38 1007.54 1006.78 1007.05 1007.22 1007.21 1006.50 1006.82 1007.65 1008.50 1009.20 1010.06 1010.28 1009.53 1009.69 1009.94 1010.30 1010.58 1010.85 1010.43 1010.67 1010.76 1010.82 1010.74 1010.00 1008.13 1007.69 1006.97 1006.47 1006.10 1005.29 1005.13 1004.97 1004.75
1014.88 1014.00 1013.55 1013.18 1013.06 1011.92 1010.91 1010.68 1010.43 1010.53 1009.61 1007.30 1006.57 1005.86 1006.51 1006.94 1006.51 1006.44 1006.58 1007.11 1007.99 1008.74 1009.73 1009.40 1009.26 1009.48 1009.69 1009.64 1009.96 1010.26 1010.28 1010.78 1011.00 1011.22 1010.95 1010.71 1010.36 1006.47 1006.58 1006.12 1005.97 1005.60 1004.96 1004.51 1004.50
1014.47 1013.50 1013.29 1012.97 1012.94 1011.18 1010.39 1010.26 1010.54 1010.78 1008.67 1006.80 1006.25 1006.27 1006.77 1006.65 1006.59 1006.45 1006.67 1007.05 1007.58 1008.79 1009.32 1009.25 1009.03 1009.17 1009.17 1009.43 1009.87 1010.24 1010.73 1011.20 1011.48 1011.98 1011.34 1010.68 1010.30 1005.83 1006.16 1005.70 1005.16 1005.02 1004.72 1004.79 1004.50
1014.11 1012.95 1012.75 1012.21 1011.43 1010.66 1010.49 1010.43 1011.05 1010.28 1008.12 1007.47 1006.79 1006.52 1006.76 1007.03 1007.06 1007.12 1007.33 1007.91 1008.52 1009.25 1009.52 1009.50 1009.30 1009.32 1009.39 1009.94 1010.49 1010.95 1011.66 1012.48 1012.77 1012.86 1011.10 1010.14 1009.58 1007.27 1005.73 1005.48 1005.07 1004.89 1004.94 1004.90 1004.79
1013.68 1012.32 1011.75 1011.33 1010.80 1010.65 1010.65 1011.07 1010.83 1009.75 1008.92 1007.89 1007.30 1007.10 1007.35 1007.51 1007.70 1007.77 1008.04 1008.62 1008.99 1009.51 1010.09 1010.21 1010.06 1009.75 1009.85 1010.19 1010.76 1011.57 1012.48 1013.86 1013.19 1013.11 1011.90 1011.04 1009.15 1006.92 1005.93 1005.52 1005.21 1005.15 1005.35 1005.08 1004.75
1013.37 1012.09 1011.73 1010.81 1010.70 1011.11 1011.32 1011.41 1010.63 1009.87 1009.14 1008.50 1007.76 1007.67 1007.99 1008.11 1008.35 1008.56 1008.80 1008.98 1009.19 1009.52 1010.33 1010.89 1010.75 1010.05 1010.14 1010.45 1011.14 1012.49 1013.20 1013.77 1014.17 1013.81 1013.12 1010.92 1008.96 1007.19 1006.44 1005.78 1005.86 1005.86 1005.79 1005.47 1005.17
1014.32 1013.28 1011.71 1010.68 1010.68 1011.01 1011.80 1011.61 1010.77 1009.77 1009.14 1008.65 1008.38 1008.09 1008.43 1008.70 1008.90 1009.04 1008.99 1008.96 1009.23 1009.61 1010.08 1011.01 1011.43 1011.06 1010.96 1011.09 1011.76 1012.41 1013.36 1014.35 1014.90 1014.30 1012.54 1010.81 1009.63 1008.15 1007.12 1006.87 1006.59 1006.50 1006.37 1006.13 1005.20
1014.60 1013.39 1011.41 1010.82 1010.83 1011.77 1012.51 1012.01 1010.87 1010.08 1009.67 1009.18 1008.87 1008.77 1009.00 1009.29 1009.45 1009.51 1009.29 1009.23 1009.35 1010.05 1010.63 1011.55 1012.29 1012.28 1012.09 1012.08 1012.32 1013.24 1013.69 1014.44 1015.15 1014.82 1013.62 1012.07 1010.07 1008.91 1008.25 1008.02 1007.56 1006.89 1006.60 1006.24 1005.50
1015.61 1014.04 1011.57 1010.92 1012.15 1013.35 1013.28 1012.51 1011.49 1010.66 1010.19 1009.75 1009.40 1009.46 1009.64 1009.70 1009.80 1009.76 1009.56 1009.23 1009.36 1009.94 1011.11 1011.98 1012.71 1013.02 1012.59 1012.25 1012.32 1012.81 1013.26 1014.03 1014.95 1014.57 1014.07 1013.05 1010.29 1008.48 1008.15 1007.85 1007.71 1007.41 1006.81 1006.41 1005.88
1016.89 1015.48 1012.32 1011.92 1013.68 1014.44 1013.93 1013.03 1012.16 1011.52 1011.21 1011.20 1010.77 1010.47 1010.31 1010.30 1010.45 1009.94 1009.69 1009.60 1009.63 1010.09 1010.82 1011.86 1012.97 1013.50 1012.99 1012.92 1012.55 1012.86 1013.24 1013.77 1014.27 1014.52 1013.84 1013.13 1010.29 1008.65 1008.40 1008.31 1008.14 1007.79 1007.17 1006.44 1005.69
1017.41 1016.73 1015.24 1014.61 1015.36 1015.48 1015.22 1013.93 1013.02 1012.34 1012.11 1012.06 1012.04 1011.57 1011.46 1011.14 1010.78 1010.47 1010.29 1010.10 1010.15 1010.25 1010.70 1011.49 1012.81 1013.38 1013.59 1013.16 1013.08 1013.18 1013.08 1013.39 1013.78 1014.00 1012.89 1011.77 1009.89 1009.13 1009.03 1008.71 1008.25 1007.87 1007.48 1006.72 1005.97
1017.91 1018.39 1018.12 1017.27 1016.75 1016.65 1016.07 1014.87 1014.04 1013.45 1013.19 1012.98 1012.60 1012.65 1012.91 1012.93 1011.64 1011.13 1010.94 1010.78 1010.67 1011.04 1011.61 1012.16 1013.10 1013.44 1013.25 1013.02 1012.90 1012.63 1012.62 1012.69 1012.93 1012.55 1012.44 1010.52 1010.08 1009.07 1008.83 1008.61 1008.45 1008.19 1007.65 1007.13 1006.28
1018.81 1018.91 1018.45 1018.03 1017.44 1016.94 1016.12 1015.39 1014.84 1014.39 1014.46 1014.08 1014.01 1013.79 1013.20 1013.01 1012.44 1011.81 1011.51 1011.37 1011.29 1011.52 1012.14 1012.84 1013.42 1013.68 1013.54 1012.96 1012.64 1012.26 1011.85 1011.80 1011.83 1011.61 1011.17 1010.67 1009.70 1008.82 1008.86 1008.80 1008.64 1008.30 1007.83 1007.13 1006.33
1018.96 1018.78 1018.73 1018.17 1017.49 1017.15 1016.14 1015.53 1015.27 1015.36 1014.86 1014.53 1014.44 1014.21 1013.67 1012.58 1011.90 1011.40 1011.12 1011.19 1011.29 1011.83 1012.60 1013.35 1013.83 1014.29 1013.84 1013.23 1012.76 1011.83 1010.74 1011.02 1011.21 1011.13 1011.03 1010.64 1009.72 1009.47 1009.15 1009.03 1008.84 1008.41 1007.82 1007.00 1006.13
Wind_Speed
17 16 16 14 14 13 12 12 12 12 12 12 11 11 12 13 13 3 8 12 9 10 3 1 1 4 3 2 2 4 3 4 5 5 7 3 1 2 4 7 1 6 4 6 4
17 17 16 15 14 14 12 12 12 11 11 11 11 11 11 12 4 8 14 11 9 10 4 3 3 5 2 2 1 4 4 7 5 4 8 4 2 2 4 10 4 6 8 4 3
18 17 16 16 15 14 13 12 11 11 10 10 10 10 10 8 3 7 6 15 13 5 2 2 3 4 3 2 3 3 5 4 4 6 7 5 4 5 5 11 7 9 9 1 2
19 18 17 16 15 13 13 12 10 10 9 9 9 8 10 1 2 5 7 15 11 7 2 5 3 4 4 5 4 2 6 6 4 5 4 9 4 8 10 11 9 10 8 12 8
19 19 18 15 14 13 12 11 10 9 8 7 7 7 3 2 9 3 11 13 6 5 5 5 4 5 4 4 3 3 3 3 7 6 7 9 11 12 16 9 13 11 14 12 10
20 20 19 17 14 13 12 11 10 8 7 6 5 4 1 3 1 2 8 8 6 5 4 4 4 4 2 2 4 4 3 4 4 6 5 6 11 4 2 7 11 12 13 11 11
20 20 20 18 16 14 11 11 10 9 7 5 4 2 1 11 3 2 7 5 6 5 5 4 4 3 3 2 1 1 3 6 4 4 6 7 9 7 5 7 9 11 10 7 11
21 19 20 19 17 16 14 11 10 9 6 4 4 1 8 4 0 3 4 2 5 5 1 4 3 1 1 1 7 3 5 3 6 4 8 3 15 11 4 7 10 11 9 9 6
21 20 20 19 17 17 15 15 10 6 4 7 2 1 9 6 3 4 5 3 6 5 4 3 3 2 4 4 4 6 1 1 8 4 5 4 7 7 13 6 10 9 10 10 15
23 21 20 19 18 17 16 11 6 7 5 4 4 3 5 2 2 3 4 3 2 3 3 4 5 3 4 5 4 4 3 2 5 7 5 10 15 10 12 8 11 9 9 11 14
24 24 21 19 18 12 9 1 2 1 2 8 5 5 5 6 3 3 4 6 3 3 2 3 3 6 8 7 4 2 2 5 8 15 3 12 17 11 10 7 11 14 8 9 12
25 23 24 21 16 14 3 3 3 3 8 12 12 7 5 4 5 0 7 5 5 5 3 5 7 9 5 4 5 5 5 8 7 10 5 10 17 9 5 8 8 9 12 10 8
24 23 23 22 17 3 3 4 4 4 2 7 5 5 5 9 6 7 8 5 4 5 6 7 7 5 5 4 4 5 5 5 7 6 3 5 13 8 5 5 8 9 8 7 9
25 24 22 23 1 1 4 1 4 5 4 6 3 4 5 6 4 9 8 7 2 8 8 6 5 5 2 6 6 5 5 5 5 3 6 5 18 12 7 9 8 12 8 9 9
26 25 19 9 4 3 1 6 1 2 3 1 1 3 4 7 1 2 3 4 8 8 6 10 3 3 5 7 5 8 2 4 4 5 3 4 4 11 4 6 7 10 12 10 8
28 28 21 2 1 7 6 4 3 4 4 2 4 4 5 2 1 1 4 3 1 4 3 6 1 4 6 2 2 1 1 3 2 2 8 11 10 20 16 8 5 5 6 8 9
31 31 17 2 3 3 4 3 5 2 6 4 3 2 1 1 2 2 2 2 4 2 4 1 4 1 1 1 1 4 5 6 5 2 11 4 6 18 12 9 7 8 6 8 8
33 32 4 4 3 5 3 4 3 2 4 5 3 3 3 2 2 4 3 0 0 3 2 3 4 5 2 3 4 2 5 5 10 9 15 6 7 9 5 5 3 3 5 4 8
29 4 2 4 4 1 6 2 4 1 4 5 7 1 1 1 2 2 2 5 5 3 4 3 4 3 1 2 4 1 2 3 1 4 5 6 7 9 4 6 7 7 8 5 8
7 5 4 5 3 4 6 3 2 3 5 3 3 0 3 1 1 3 2 3 3 1 2 3 2 2 2 3 3 3 4 1 1 6 6 4 4 6 7 10 11 13 8 10 5
2 4 3 6 3 6 3 2 3 7 9 4 4 3 2 1 1 2 3 2 4 3 4 3 3 3 1 4 6 1 1 3 2 4 4 4 6 3 4 5 9 9 9 10 8
4 3 4 4 5 2 1 5 7 9 14 5 4 3 4 4 4 5 5 4 2 6 6 3 5 3 7 4 5 5 5 6 4 4 2 4 7 4 4 7 5 11 12 9 8
3 4 5 4 3 3 6 4 2 3 4 7 7 5 4 2 3 3 2 3 4 6 8 7 0 2 8 6 4 2 2 4 2 1 6 4 7 4 4 7 6 6 12 13 14
3 5 6 6 2 4 5 4 4 6 2 4 10 5 6 4 2 3 2 3 7 1 6 8 3 7 7 7 5 5 4 5 6 3 8 12 20 16 8 6 8 9 10 13 13
4 1 2 5 3 4 3 4 4 3 6 4 2 4 3 5 6 5 2 3 2 3 3 4 4 5 6 7 6 9 10 9 8 13 10 16 15 13 6 6 6 7 10 14 15
2 3 4 3 3 4 3 2 5 3 4 3 6 8 6 6 9 13 6 3 6 0 2 2 2 2 4 9 8 10 9 9 10 5 6 10 16 4 4 5 7 9 13 16 18
2 2 3 4 5 5 2 3 4 9 4 8 7 10 10 17 13 13 11 6 4 6 4 3 4 2 5 3 6 7 6 5 3 5 5 8 5 5 6 10 10 14 16 18 18
Wind_Direction
335 331 325 322 315 310 307 307 304 302 304 306 309 313 315 317 323 345 238 220 193 208 44 61 112 127 88 111 123 108 81 186 205 189 246 269 358 335 286 270 310 303 293 245 274
337 334 328 323 320 315 311 308 304 302 304 304 305 310 318 322 313 255 244 208 212 140 124 145 129 123 85 126 107 122 157 212 199 211 277 285 306 300 297 293 263 286 287 3 35
334 335 332 328 322 317 313 310 305 302 305 305 306 311 312 328 340 250 189 201 189 191 84 112 95 101 100 123 188 156 194 218 238 230 251 272 280 225 248 278 254 274 286 228 252
335 333 334 331 324 319 315 310 306 305 306 307 305 309 307 245 109 339 40 161 164 166 129 100 85 94 128 195 191 168 230 195 248 224 261 267 249 268 226 242 245 246 250 287 219
337 335 333 333 328 322 317 311 307 304 301 298 302 306 353 285 250 312 108 133 105 122 136 141 140 142 174 189 160 200 253 244 257 281 241 263 259 248 265 254 264 258 266 245 238
337 338 335 329 327 324 316 310 306 299 294 292 292 304 300 276 159 154 121 123 131 122 164 162 184 198 167 201 153 195 230 265 279 257 239 221 267 193 212 228 260 261 254 261 236
335 337 337 331 324 319 313 303 295 292 288 281 254 238 305 234 19 192 146 155 170 173 160 214 160 150 138 316 191 297 310 340 240 247 232 184 264 238 243 253 257 278 273 268 257
336 336 336 332 326 320 313 302 292 280 266 234 212 213 249 254 262 149 160 188 190 226 256 262 164 217 209 81 17 358 55 39 291 327 277 144 273 288 278 286 269 268 280 293 253
337 334 332 330 325 323 319 308 286 259 244 165 104 144 275 318 261 200 160 174 164 211 240 230 145 116 40 90 13 10 227 60 315 237 266 195 289 298 321 296 272 259 269 276 281
335 332 326 325 324 324 326 320 126 120 129 176 262 330 277 208 220 185 200 86 25 347 45 81 55 81 42 69 251 279 329 264 236 280 210 267 268 267 271 285 278 264 248 257 260
332 329 324 322 322 320 333 322 23 345 228 211 192 255 282 270 276 184 144 94 44 39 186 13 72 220 223 201 215 255 258 256 266 279 243 271 275 265 264 281 280 285 277 262 255
331 328 323 321 319 320 164 211 192 179 298 233 249 241 266 44 335 281 122 128 132 195 111 15 255 225 205 179 209 227 256 270 278 261 165 271 275 269 242 246 242 267 292 277 274
330 329 326 321 322 122 214 230 109 117 282 293 189 197 197 145 210 254 149 148 166 171 185 177 232 97 162 221 211 239 200 246 234 290 280 269 280 297 257 245 282 270 240 279 278
329 330 331 328 214 285 253 80 317 187 32 272 246 248 139 140 238 202 177 145 195 208 168 230 250 225 229 255 155 266 207 229 272 322 262 143 287 273 253 238 240 264 286 274 289
326 327 331 324 304 194 110 327 291 68 345 173 136 135 158 155 281 68 184 74 195 191 129 233 191 211 222 228 158 236 329 290 272 263 297 188 263 269 241 252 258 258 259 263 263
324 323 334 120 188 252 311 336 55 43 260 21 110 164 134 261 349 56 152 83 204 150 259 241 194 168 206 179 210 2 16 302 86 145 260 247 215 274 266 229 244 246 269 307 305
323 319 319 197 221 293 301 60 49 172 316 16 15 5 134 10 91 60 95 109 195 149 253 305 227 157 117 158 164 70 45 324 312 261 270 6 234 248 310 285 248 264 290 302 291
324 315 236 227 282 350 56 58 160 299 7 324 329 326 125 20 44 356 41 205 316 110 87 176 319 163 189 201 207 172 159 181 260 273 291 326 246 249 254 281 85 32 296 340 336
324 321 315 277 217 108 74 92 204 114 321 312 307 206 116 332 112 23 204 202 189 162 153 151 271 299 107 120 117 97 182 185 267 220 263 233 292 310 353 31 8 333 339 343 323
320 327 320 331 124 62 74 213 265 250 329 318 272 103 196 285 102 39 272 207 189 164 86 198 282 272 336 61 56 168 147 356 280 276 248 268 265 244 342 360 343 334 324 304 308
357 21 275 338 61 48 114 260 305 4 17 323 319 313 39 174 320 255 258 282 180 134 88 119 127 284 337 182 198 163 168 147 217 243 298 318 292 319 317 274 319 329 329 310 294
345 44 322 4 51 42 78 301 347 11 358 326 350 341 232 204 228 225 233 225 166 159 160 168 153 229 237 258 243 182 208 143 136 276 272 264 266 248 279 305 344 335 334 333 312
356 278 320 54 93 0 316 304 327 23 18 349 320 1 360 276 259 230 261 31 102 158 166 181 169 354 344 358 354 111 183 140 128 116 238 245 259 226 334 335 341 325 336 340 338
20 352 334 29 37 59 355 287 344 349 269 280 313 349 6 340 298 305 310 358 344 233 140 125 143 170 201 227 184 262 223 201 174 213 261 241 277 283 300 312 323 330 330 329 331
24 4 166 326 349 341 273 291 300 316 2 21 256 226 210 291 313 271 234 304 16 21 63 108 201 197 245 253 247 256 260 257 215 239 240 277 268 281 273 309 300 309 330 326 324
52 20 357 290 293 325 320 294 305 329 356 296 204 256 291 259 273 286 266 217 228 185 121 20 252 175 270 261 263 268 247 248 248 243 262 266 283 275 332 332 319 310 313 308 305
310 314 116 294 329 312 274 355 330 340 258 255 277 280 281 262 281 264 244 221 213 176 183 142 145 102 267 324 305 278 214 192 250 243 243 281 271 342 322 326 315 307 298 291 291